THORAD AGENA D DEB, 4717

Orbit data source: Space-Track

THORAD AGENA D DEB, 4717 is space debris in SSO originally from a launch on Wed, 08 Apr 1970 UTC launched from the Air Force Western Test Range (AFWTR). Debris objects in space refer to the collection of defunct objects orbiting the Earth. Examples of debris include non-operational satellites, rocket bodies, and fragments generated from explosions, collisions, or faulty payload assembly.

Loading next visibility...
Identifier
4717, 1970-025CB
Orbit
SSO
Country
Flag of USUS
Related business
Manufacturer
Unknown
Mission
Spacecraft
Bus & Motor
Unknown
Mass
Unknown
Launch date (UTC)
1970-04-08 (56 years ago)
Launch vehicle
Unknown
Launch site
Air Force Western Test Range (AFWTR)
Object type
Payload
Rocket body
Debris
Shape & HBR
Unknown shape, 0.1 m
Radar Cross Section
Small (<0.1 m²)

Expand to show TLE details & history
Last TLE update: 20 hours ago

TLE from 20 hours ago
0 THORAD AGENA D DEB
1 04717U 70025CB  25346.14315854  .00000118  00000-0  23929-3 0  9992
2 04717 100.0307  53.3743 0002265 348.0619  41.4266 13.54872373748086
Epoch: 2025-12-12T03:26Z
TLE epoch observation values (Epoch: 2025-12-12T03:26:08.897Z)
Latitude
29.05825°
Longitude
-84.86285°
Altitude
1,056.611 km
Speed
7.327 km/s
True Right ascension
03h 11m 03s
True Declination
28° 55' 06"
Sunlit
Object was in full shadow at epoch
Visualization orbit readout
Latitude
Unknown
Longitude
Unknown
Altitude
Unknown
Speed
Unknown
Apparent Right ascension
Unknown
Apparent Declination
Unknown
Sunlit
N/A
Visualization observer readout
Local Sidereal Time
22:21:16
Azimuth
Unknown
Elevation
Unknown
Doppler factor
Unknown
Orbital elements
Apogee altitude
1,053.381 km
Perigee altitude
1,050.015 km
Semi-major axis
7,429.835 km
Eccentricity
0.00023
Inclination
100.0307°
RAAN
53.3743°
Arg. of periapsis
348.0619°
True anomaly
41.44378°
Mean anomaly
41.4266°
Eccentric anomaly
41.43519°
Mean motion
3.38902 °/min
Orbital period
106.23 mins
BSTAR
0.00023929
Loading maneuver chart data...
Computing Atmospheric mass density...

Documentation

Showing up to 5 results
|